Location: Arrodet
(43.0749°N, 0.0382°E)
Time: 07:19:48
(UTC+00:00)

Daily predictions for brighter satellites

Satellite Brightness Start Highest point End
(mag) Time Altitude Azimuth Time Altitude Azimuth Time Altitude Azimuth
SL-24 R/B 4.2 17:15:18 10° SSE 17:19:32 59° ENE 17:23:56 10° N
CZ-4C R/B 2.4 17:15:39 10° SW 17:20:30 66° NW 17:26:21 10° NNE
CZ-4B R/B 3.2 17:17:48 10° SSE 17:23:16 74° ENE 17:28:53 10° N
Tsikada Rocket 4.1 17:17:13 10° S 17:23:34 81° E 17:29:52 10° N
FengYun 1-2 T 4.3 17:19:11 10° SSE 17:24:37 62° ENE 17:30:09 10° N
USA 234 4.4 17:20:16 10° ENE 17:25:30 27° N 17:30:46 10° NW
CZ-2D R/B 4.4 17:24:46 10° ESE 17:27:49 23° ENE 17:30:52 10° NNE
Cosmos 1400 Rocket 2.9 17:23:54 10° N 17:28:03 87° WSW 17:32:07 10° S
Cosmos 1354 Rocket 4.3 17:23:26 10° S 17:28:34 52° ESE 17:33:44 10° NNE
Meteor 2-5 Rocket 3.9 17:23:31 10° SSE 17:28:52 49° E 17:34:11 10° NNE
SL-14 R/B 3.6 17:25:50 10° SSE 17:29:29 42° E 17:33:10 10° NNE
Cosmos 1025 Rocket 3.9 17:26:08 10° SSW 17:30:20 54° W 17:34:36 10° N
Cosmos 836 Rocket 4.5 17:26:20 10° NNW 17:31:34 83° ENE 17:36:46 10° SSE
Cosmos 972 4.4 17:26:51 10° NNW 17:32:09 66° ENE 17:37:03 10° SSE
Cosmos 1603 3.9 17:27:17 10° NNW 17:32:49 50° ENE 17:38:21 10° SE
Cosmos 2297 Rocket 4.3 17:28:46 10° W 17:33:03 22° NW 17:37:21 10° N
COSMOS 2455 4.0 17:31:03 10° SSE 17:35:40 23° ESE 17:40:17 10° NE
ATLAS 3B R/B 2.8 17:32:41 10° NNW 17:39:40 75° NE 17:46:56 10° SE
Cosmos 968 Rocket 4.2 17:38:06 10° SW 17:43:06 54° WNW 17:48:07 10° NNE
YAOGAN 1 3.8 17:40:15 10° ESE 17:43:25 20° ENE 17:46:35 10° NNE
Cosmos 1606 Rocket 4.0 17:40:38 10° N 17:44:46 39° ENE 17:48:54 10° SSE
H-2A R/B 3.6 17:43:35 10° S 17:47:22 46° W 17:51:19 10° NNW
H-2A R/B 2.6 17:43:08 10° N 17:47:35 65° WNW 17:51:55 10° SSW
Cosmos 1626 2.2 17:44:30 10° S 17:48:11 79° W 17:51:54 10° N
CZ-2C R/B 3.5 17:43:57 10° SE 17:48:48 42° ENE 17:53:55 10° N
Cosmos 1939 Rocket 2.9 17:45:14 10° SSE 17:49:18 62° ENE 17:53:23 10° N
NOSS 7 (E) 4.4 17:46:21 10° SW 17:50:22 87° SE 17:53:17 12° NE
CZ-4 R/B 2.2 17:51:55 10° SE 17:55:29 29° ENE 17:59:02 10° N
CSL-04 DEB 4.4 17:52:15 10° NNE 17:56:31 87° ESE 18:00:38 10° SSW
ATLAS 5 CENTAUR R/B 1.4 17:53:01 10° SW 17:56:58 87° NW 18:01:05 12° NE
SKYMED 2 3.6 17:53:01 10° NNE 17:57:18 58° E 18:01:35 10° S
MOS 1 Rocket 3.4 17:54:47 10° NNE 17:58:56 42° E 18:02:58 10° S
YAOGAN 3 4.5 17:56:00 10° SSE 18:00:19 69° ENE 18:04:41 10° N
BREEZE-M DEB (TANK) 2.0 17:57:14 10° WNW 18:00:53 83° SSW 18:02:38 15° ESE
Meteor 2-10 Rocket 4.0 18:00:06 10° N 18:05:18 39° ENE 18:10:18 10° SE
Feng Yun 1-1 Rocket 4.1 18:00:36 10° SSE 18:05:59 77° ENE 18:11:29 10° NNW
Abrixas rocket 2.5 18:05:30 10° WNW 18:08:04 47° SSW 18:10:07 14° SE
SJ 16-02 2.8 18:06:02 10° SE 18:08:46 18° ESE 18:08:46 18° ESE
Cosmos 2058 Rocket 3.6 18:05:15 10° N 18:09:24 36° ENE 18:13:34 10° SE
Cosmos 2228 2.9 18:05:28 10° N 18:09:45 84° E 18:14:01 10° S
H-2A R/B 2.4 18:05:33 10° SE 18:10:03 37° ENE 18:14:40 10° N
Cosmos 2263 Rocket 2.5 18:04:37 10° SSW 18:10:17 70° WNW 18:15:58 10° NNE
Cosmos 1315 Rocket 2.8 18:07:22 10° N 18:11:21 85° W 18:15:20 10° S
Okean 1-7 Rocket 4.2 18:08:39 10° SSE 18:12:46 35° E 18:16:13 14° NNE
EXPRESS MD2 4.5 18:06:00 10° WNW 18:14:20 54° NNE 18:16:50 25° E
SAR-Lupe-4 3.9 18:12:53 21° NE 18:14:53 41° E 18:18:17 10° S
Meteor 1-24 Rocket 3.6 18:09:50 10° S 18:15:15 85° W 18:20:35 10° N
Cosmos 1300 3.1 18:15:54 10° NNW 18:19:40 63° W 18:23:26 10° S
Cosmos 1689 Rocket 2.2 18:22:29 44° ESE 18:22:29 44° ESE 18:25:07 10° S
Cosmos 1818 4.4 18:19:26 10° S 18:24:03 29° ESE 18:25:19 27° E
SAR-Lupe-1 4.0 18:24:36 26° NNE 18:26:22 57° E 18:29:53 10° S
Cosmos 1943 3.5 18:23:14 10° NNW 18:28:53 68° WSW 18:34:27 10° SSE
ISS -1.8 18:26:34 10° S 18:28:24 17° SSE 18:28:24 17° SSE
Helios 1A Rocket 3.1 18:25:43 10° SE 18:29:40 47° ENE 18:33:40 10° N
SJ-11-01 4.3 18:27:31 10° SSE 18:32:05 53° ENE 18:36:39 10° N
ARGOS 3.4 18:27:40 10° SE 18:32:41 44° ENE 18:37:46 10° N
Cosmos 1726 Rocket 3.6 18:28:39 10° N 18:33:00 78° W 18:37:23 10° S
USA 267 3.6 18:29:51 26° ENE 18:33:19 47° SE 18:39:33 10° SSW
CSL-04 Debris 4.3 18:28:55 10° SE 18:34:02 46° ENE 18:39:10 10° N
Cosmos 1844 4.3 18:29:33 10° SSE 18:34:28 32° ESE 18:35:08 31° E
Lacrosse 5 2.8 18:32:40 10° NW 18:37:06 29° NNE 18:37:41 29° NE
Cosmos 2279 Rocket 4.3 18:30:54 10° NNW 18:37:08 70° W 18:43:20 10° S
Okean-O 2.5 18:34:27 10° SSE 18:38:52 79° ENE 18:43:19 10° N
Cosmos 773 Rocket 4.1 18:34:14 10° NNW 18:39:24 76° WSW 18:44:30 10° SSE
ATLAS 2AS CENTAUR R/B 4.3 18:34:07 10° W 18:41:10 33° NW 18:48:02 10° NNE
Aureole 2 Rocket 4.3 18:40:24 10° S 18:41:09 16° S 18:41:09 16° S
CZ-2C R/B 3.2 18:43:09 37° E 18:43:35 37° E 18:48:43 10° SSE
COSMO-SKYMED 1 3.8 18:41:14 10° N 18:45:21 42° WNW 18:49:26 10° SW
X-37B 2.8 18:46:35 10° SSW 18:47:55 18° S 18:47:55 18° S
ERS-2 2.9 18:46:37 16° N 18:49:22 50° WNW 18:52:53 10° SSW
CZ-4B R/B 3.8 18:47:13 10° NNW 18:49:57 23° WNW 18:52:37 10° WSW
OE (NEXTSAT) 4.4 18:47:14 10° WSW 18:50:24 70° SSW 18:50:24 70° SSW
Cosmos 1538 Rocket 3.9 18:58:09 10° NNW 19:03:21 82° WSW 19:08:30 10° SSE
Cosmos 1844 Rocket 2.5 19:00:21 10° SSW 19:05:59 73° ESE 19:07:13 54° NE
USA 234 3.7 19:06:27 40° NE 19:07:28 42° NNE 19:13:33 10° NW
Meteor 2-1 Rocket 4.0 19:03:23 10° N 19:09:00 87° ENE 19:14:32 10° S
CZ-4C R/B 4.3 19:06:40 10° WNW 19:10:23 18° NNW 19:13:42 12° NNE
Cosmos 489 Rocket 4.3 19:06:45 10° NNW 19:13:09 74° ENE 19:15:41 38° SE
Cosmos 1092 Rocket 3.8 19:08:02 10° S 19:14:13 72° E 19:17:18 31° NNE
Iridium 4 Rocket 4.3 19:11:42 10° N 19:23:28 - S 19:15:35 42° NNE
YAOGAN 1 3.9 19:15:11 10° SSW 19:19:14 39° W 19:23:19 10° NNW
COSMOS 2455 3.2 19:15:10 10° SW 19:21:06 61° NW 19:23:38 35° N
CSL-04 Rocket 4.0 19:23:44 10° S 19:29:02 64° WSW 19:34:29 10° NNW
CZ-4 R/B 3.7 19:27:06 10° SSW 19:30:29 24° W 19:33:50 10° NW
ATLAS 5 CENTAUR R/B 4.0 19:39:53 10° WNW 19:42:24 15° NNW 19:42:38 15° NNW
SJ 16-02 3.0 19:43:04 10° SW 19:45:49 31° WSW 19:45:49 31° WSW
H-2A R/B 4.0 19:45:26 10° SSW 19:49:33 26° W 19:53:46 10° NW
NOSS 3-1 (C) 4.4 19:50:50 10° NNW 19:56:35 50° N 19:56:35 50° N
USA 267 3.8 20:17:12 54° WNW 20:17:12 54° WNW 20:22:45 10° WSW
Lacrosse 5 4.2 20:15:26 10° NW 20:16:54 19° NW 20:16:54 19° NW
CZ-2C R/B 4.3 20:24:39 31° W 20:24:39 31° W 20:28:38 10° SW
